EW5655 Weather Reports


Display with metric or nautical units.
time (UTC)temp
F
wind
direction
speed
MPH
gust
MPH
rain 1hr
in
rain 24hr
in
rain mn
in
humidity
%
barometer
mb
20260901213504 91 276 5.0 10.0 0.00 0.00 0.00 29 1018.0
20260901213004 91 211 5.0 8.0 0.00 0.00 0.00 29 1018.1
20260901212503 91 157 2.0 10.0 0.00 0.00 0.00 28 1018.1
20260901212004 92 198 4.0 10.0 0.00 0.00 0.00 28 1018.2
20260901211502 91 164 6.0 11.0 0.00 0.00 0.00 28 1018.2
20260901211002 91 246 3.0 11.0 0.00 0.00 0.00 29 1018.3
20260901210502 90 220 6.0 10.0 0.00 0.00 0.00 29 1018.4
20260901210100 90 206 3.0 9.0 0.00 0.00 0.00 29 1018.4
20260901205600 90 240 6.0 11.0 0.00 0.00 0.00 29 1018.4
20260901205103 91 207 6.0 11.0 0.00 0.00 0.00 29 1018.5
20260901204558 92 214 7.0 11.0 0.00 0.00 0.00 28 1018.5
20260901204101 91 165 4.0 10.0 0.00 0.00 0.00 28 1018.6
20260901203559 92 309 3.0 10.0 0.00 0.00 0.00 28 1018.7
20260901203057 93 214 4.0 12.0 0.00 0.00 0.00 28 1018.8
20260901202556 93 138 6.0 12.0 0.00 0.00 0.00 28 1018.8
20260901202055 92 171 3.0 10.0 0.00 0.00 0.00 27 1018.9
20260901201558 92 154 5.0 10.0 0.00 0.00 0.00 28 1019.0
20260901201053 91 162 2.0 8.0 0.00 0.00 0.00 28 1019.0
20260901200551 92 160 0.0 9.0 0.00 0.00 0.00 28 1019.1
20260901200052 91 140 4.0 9.0 0.00 0.00 0.00 28 1019.1
20260901195550 91 123 4.0 9.0 0.00 0.00 0.00 30 1019.2
20260901195050 91 203 3.0 9.0 0.00 0.00 0.00 28 1019.2
20260901194600 90 292 5.0 9.0 0.00 0.00 0.00 29 1019.2
20260901194051 91 276 5.0 9.0 0.00 0.00 0.00 29 1019.3
20260901193548 91 233 2.0 9.0 0.00 0.00 0.00 29 1019.4
20260901193101 91 234 4.0 8.0 0.00 0.00 0.00 29 1019.5
20260901192547 90 227 4.0 9.0 0.00 0.00 0.00 29 1019.5
20260901192046 91 166 6.0 9.0 0.00 0.00 0.00 29 1019.6
20260901191544 91 217 4.0 11.0 0.00 0.00 0.00 30 1019.6
20260901191046 90 184 6.0 11.0 0.00 0.00 0.00 30 1019.7
20260901190543 90 235 5.0 9.0 0.00 0.00 0.00 31 1019.7
20260901190041 89 153 2.0 8.0 0.00 0.00 0.00 30 1019.7
20260901185541 89 334 4.0 9.0 0.00 0.00 0.00 30 1019.8
20260901185039 90 325 5.0 9.0 0.00 0.00 0.00 30 1019.8
20260901184543 90 239 3.0 7.0 0.00 0.00 0.00 31 1019.9
20260901184039 89 342 3.0 7.0 0.00 0.00 0.00 30 1019.9
20260901183539 89 249 1.0 6.0 0.00 0.00 0.00 31 1019.9
20260901183037 89 276 3.0 9.0 0.00 0.00 0.00 32 1020.0
20260901182536 88 192 4.0 9.0 0.00 0.00 0.00 32 1020.0
20260901182036 88 257 1.0 7.0 0.00 0.00 0.00 30 1020.0
20260901181539 88 257 4.0 7.0 0.00 0.00 0.00 31 1020.1
20260901181034 88 194 4.0 8.0 0.00 0.00 0.00 31 1020.1
20260901180534 88 215 5.0 8.0 0.00 0.00 0.00 32 1020.2
20260901180033 87 248 1.0 5.0 0.00 0.00 0.00 33 1020.2
20260901175532 87 291 2.0 10.0 0.00 0.00 0.00 32 1020.3
20260901175031 88 305 3.0 7.0 0.00 0.00 0.00 32 1020.3
20260901174530 87 191 3.0 8.0 0.00 0.00 0.00 31 1020.4
20260901174029 87 180 4.0 8.0 0.00 0.00 0.00 32 1020.4
20260901173529 87 202 0.0 4.0 0.00 0.00 0.00 34 1020.4
20260901173030 86 281 2.0 4.0 0.00 0.00 0.00 35 1020.4
20260901172525 85 230 1.0 5.0 0.00 0.00 0.00 35 1020.5
20260901172026 86 294 1.0 6.0 0.00 0.00 0.00 35 1020.6
20260901171523 86 163 3.0 6.0 0.00 0.00 0.00 34 1020.5
20260901171022 86 237 2.0 6.0 0.00 0.00 0.00 35 1020.5
20260901170521 86 173 2.0 6.0 0.00 0.00 0.00 36 1020.5
20260901170053 85 59 0.0 4.0 0.00 0.00 0.00 36 1020.5
20260901165519 84 196 1.0 5.0 0.00 0.00 0.00 37 1020.5
20260901165018 84 197 2.0 5.0 0.00 0.00 0.00 38 1020.5
20260901164518 84 225 1.0 5.0 0.00 0.00 0.00 39 1020.5
20260901164017 84 89 1.0 5.0 0.00 0.00 0.00 39 1020.4
20260901163515 84 121 1.0 5.0 0.00 0.00 0.00 40 1020.4
20260901163026 83 87 1.0 5.0 0.00 0.00 0.00 40 1020.4
20260901162515 82 259 0.0 5.0 0.00 0.00 0.00 41 1020.4
20260901162117 82 184 1.0 6.0 0.00 0.00 0.00 42 1020.4
20260901161011 80 175 0.0 4.0 0.00 0.00 0.00 43 1020.4
20260901155053 80 62 0.0 1.0 0.00 0.00 0.00 45 1020.3
20260901154559 79 62 0.0 0.0 0.00 0.00 0.00 46 1020.3
20260901154050 79 62 0.0 4.0 0.00 0.00 0.00 48 1020.3
20260901153048 78 62 0.0 2.0 0.00 0.00 0.00 48 1020.3
20260901152547 78 62 0.0 2.0 0.00 0.00 0.00 51 1020.3
20260901152046 77 62 0.0 4.0 0.00 0.00 0.00 51 1020.4
20260901151553 77 62 0.0 4.0 0.00 0.00 0.00 51 1020.4
20260901151521 77 62 0.0 4.0 0.00 0.00 0.00 52 1020.4
20260901150058 75 62 0.0 4.0 0.00 0.00 0.00 54 1020.4
20260901145541 75 62 0.0 2.0 0.00 0.00 0.00 54 1020.3
20260901145041 74 62 0.0 2.0 0.00 0.00 0.00 55 1020.4
20260901144544 74 62 0.0 2.0 0.00 0.00 0.00 56 1020.4
20260901144040 74 62 0.0 2.0 0.00 0.00 0.00 55 1020.4
20260901143538 74 62 0.0 2.0 0.00 0.00 0.00 55 1020.4
20260901143038 74 62 0.0 2.0 0.00 0.00 0.00 54 1020.4
20260901142538 74 62 0.0 2.0 0.00 0.00 0.00 53 1020.3
20260901142036 74 62 0.0 0.0 0.00 0.00 0.00 54 1020.3
20260901141537 74 62 0.0 2.0 0.00 0.00 0.00 55 1020.3
20260901141037 73 62 0.0 2.0 0.00 0.00 0.00 54 1020.2
20260901140539 73 62 0.0 1.0 0.00 0.00 0.00 54 1020.3
20260901140034 73 62 0.0 0.0 0.00 0.00 0.00 55 1020.2
20260901135532 72 62 0.0 0.0 0.00 0.00 0.00 56 1020.1
20260901135032 71 62 0.0 1.0 0.00 0.00 0.00 57 1020.1
20260901134534 72 62 0.0 1.0 0.00 0.00 0.00 57 1020.0
20260901134029 71 62 0.0 1.0 0.00 0.00 0.00 56 1020.0
20260901133533 71 62 0.0 1.0 0.00 0.00 0.00 57 1019.9
20260901133030 71 62 0.0 1.0 0.00 0.00 0.00 56 1020.0
20260901132528 71 62 0.0 2.0 0.00 0.00 0.00 56 1019.9
20260901132028 71 62 0.0 2.0 0.00 0.00 0.00 57 1019.9
20260901131539 71 62 0.0 0.0 0.00 0.00 0.00 58 1019.8
20260901131028 71 62 0.0 0.0 0.00 0.00 0.00 57 1019.8
20260901130528 71 62 0.0 0.0 0.00 0.00 0.00 56 1019.8
20260901130025 71 62 0.0 0.0 0.00 0.00 0.00 56 1019.7
20260901125524 71 62 0.0 4.0 0.00 0.00 0.00 55 1019.6
20260901125025 71 62 0.0 4.0 0.00 0.00 0.00 55 1019.6
20260901124523 71 286 0.0 1.0 0.00 0.00 0.00 55 1019.5
20260901124023 71 286 0.0 0.0 0.00 0.00 0.00 56 1019.5
20260901123522 71 286 0.0 0.0 0.00 0.00 0.00 56 1019.4
20260901123031 72 286 0.0 0.0 0.00 0.00 0.00 56 1019.5
20260901122522 71 286 0.0 0.0 0.00 0.00 0.00 57 1019.4
20260901122021 71 286 0.0 0.0 0.00 0.00 0.00 56 1019.4
20260901121523 72 286 0.0 0.0 0.00 0.00 0.00 56 1019.3
20260901121020 71 286 0.0 0.0 0.00 0.00 0.00 56 1019.3
20260901120520 71 286 0.0 0.0 0.00 0.00 0.00 56 1019.3
20260901120019 72 286 0.0 0.0 0.00 0.00 0.00 56 1019.4
20260901115518 72 286 0.0 0.0 0.00 0.00 0.00 54 1019.3
20260901115018 72 286 0.0 2.0 0.00 0.00 0.00 54 1019.3
20260901114534 72 286 0.0 2.0 0.00 0.00 0.00 54 1019.3
20260901114016 72 286 0.0 2.0 0.00 0.00 0.00 54 1019.2
20260901113514 72 286 0.0 5.0 0.00 0.00 0.00 54 1019.2
20260901113020 73 290 0.0 5.0 0.00 0.00 0.00 53 1019.2
20260901112513 73 286 1.0 7.0 0.00 0.00 0.00 53 1019.2
20260901112013 73 236 2.0 7.0 0.00 0.00 0.00 53 1019.2
20260901111513 73 281 3.0 5.0 0.00 0.00 0.00 52 1019.2
20260901111011 73 27 0.0 1.0 0.00 0.00 0.00 51 1019.0
20260901110511 74 27 0.0 2.0 0.00 0.00 0.00 50 1019.0
20260901110010 74 27 0.0 5.0 0.00 0.00 0.00 50 1019.0
20260901105510 74 47 0.0 5.0 0.00 0.00 0.00 50 1018.8
20260901105009 74 34 1.0 5.0 0.00 0.00 0.00 50 1018.8
20260901104509 74 34 1.0 5.0 0.00 0.00 0.00 50 1018.8
20260901104009 74 28 0.0 2.0 0.00 0.00 0.00 50 1018.8
20260901103509 74 47 0.0 4.0 0.00 0.00 0.00 50 1018.9
20260901103012 74 59 1.0 4.0 0.00 0.00 0.00 50 1019.0
20260901102508 74 56 0.0 5.0 0.00 0.00 0.00 50 1019.0
20260901102006 74 28 0.0 5.0 0.00 0.00 0.00 49 1019.0
20260901101505 74 49 0.0 4.0 0.00 0.00 0.00 50 1019.1
20260901101006 74 47 0.0 1.0 0.00 0.00 0.00 49 1019.1
20260901100507 74 61 0.0 4.0 0.00 0.00 0.00 50 1019.1
20260901100004 74 53 0.0 4.0 0.00 0.00 0.00 50 1019.1
20260901095504 75 47 0.0 4.0 0.00 0.00 0.00 49 1019.2
20260901095005 75 57 1.0 4.0 0.00 0.00 0.00 49 1019.2
20260901094504 75 43 0.0 4.0 0.00 0.00 0.00 49 1019.2
20260901094003 75 46 0.0 4.0 0.00 0.00 0.00 49 1019.2
20260901093503 75 10 0.0 4.0 0.00 0.00 0.00 50 1019.1
20260901093003 75 26 1.0 4.0 0.00 0.00 0.00 50 1019.1
20260901092502 75 26 1.0 5.0 0.00 0.00 0.00 50 1019.2
20260901092002 75 27 1.0 5.0 0.00 0.00 0.00 50 1019.3
20260901091504 75 9 0.0 4.0 0.00 0.00 0.00 50 1019.4
20260901091001 75 3 0.0 6.0 0.00 0.00 0.00 50 1019.5
20260901090501 75 59 1.0 6.0 0.00 0.00 0.00 50 1019.4
20260901090005 75 34 1.0 5.0 0.00 0.00 0.00 50 1019.4
20260901085602 75 36 1.0 7.0 0.00 0.00 0.00 50 1019.4
20260901085059 75 41 3.0 7.0 0.00 0.00 0.00 50 1019.4
20260901084603 75 40 2.0 6.0 0.00 0.00 0.00 50 1019.4
20260901084100 75 62 0.0 2.0 0.00 0.00 0.00 51 1019.4
20260901083559 75 28 0.0 5.0 0.00 0.00 0.00 51 1019.3
20260901083059 75 19 2.0 5.0 0.00 0.00 0.00 51 1019.5
20260901082558 76 41 1.0 3.0 0.00 0.00 0.00 51 1019.5
20260901082057 76 9 0.0 4.0 0.00 0.00 0.00 50 1019.5
20260901081557 76 17 0.0 6.0 0.00 0.00 0.00 51 1019.6
20260901081058 76 42 1.0 6.0 0.00 0.00 0.00 51 1019.5
20260901080557 76 24 1.0 6.0 0.00 0.00 0.00 51 1019.5
20260901080058 76 52 1.0 6.0 0.00 0.00 0.00 50 1019.4
20260901075557 76 7 2.0 6.0 0.00 0.00 0.00 50 1019.3
20260901075057 76 32 0.0 8.0 0.00 0.00 0.00 51 1019.4
20260901074600 76 47 4.0 8.0 0.00 0.00 0.00 52 1019.4
20260901074055 76 9 3.0 7.0 0.00 0.00 0.00 52 1019.3
20260901073554 76 337 3.0 7.0 0.00 0.00 0.00 51 1019.3
20260901073054 76 58 0.0 6.0 0.00 0.00 0.00 50 1019.2
20260901072553 77 9 0.0 10.0 0.00 0.00 0.00 48 1019.2
20260901072053 77 17 5.0 10.0 0.00 0.00 0.00 44 1019.1
20260901071552 77 13 5.0 10.0 0.00 0.00 0.00 43 1019.3
20260901071050 77 14 3.0 8.0 0.00 0.00 0.00 43 1019.6
20260901070550 77 2 1.0 8.0 0.00 0.00 0.00 44 1019.6
20260901070050 77 47 2.0 8.0 0.00 0.00 0.00 44 1019.4
20260901065549 77 15 4.0 8.0 0.00 0.00 0.00 44 1019.5
20260901065049 77 4 3.0 8.0 0.00 0.00 0.00 44 1019.7
20260901064549 77 340 3.0 9.0 0.00 0.00 0.00 44 1019.7
20260901064047 77 7 3.0 11.0 0.00 0.00 0.00 45 1019.6
20260901063546 77 317 3.0 11.0 0.00 0.00 0.00 46 1019.7
20260901063105 77 310 5.0 10.0 0.00 0.00 0.00 46 1019.8
20260901062544 77 302 5.0 14.0 0.00 0.00 0.00 46 1019.9
20260901062044 77 307 8.0 14.0 0.00 0.00 0.00 46 1019.9
20260901061547 78 334 5.0 10.0 0.00 0.00 0.00 46 1019.8
20260901061041 78 330 3.0 10.0 0.00 0.00 0.00 46 1019.7
20260901060541 78 331 5.0 11.0 0.00 0.00 0.00 46 1019.7
20260901060040 78 346 6.0 15.0 0.00 0.00 0.00 45 1019.6
20260901055539 78 26 8.0 15.0 0.00 0.00 0.00 45 1019.6
20260901055039 78 286 6.0 14.0 0.00 0.00 0.00 46 1019.4
20260901054539 78 333 6.0 11.0 0.00 0.00 0.00 46 1019.5
20260901054039 77 321 6.0 11.0 0.00 0.00 0.00 48 1019.5
20260901053538 77 315 5.0 9.0 0.00 0.00 0.00 48 1019.6
20260901053050 77 340 5.0 13.0 0.00 0.00 0.00 48 1019.6
20260901052540 77 299 6.0 13.0 0.00 0.00 0.00 48 1019.8
20260901052037 77 330 7.0 12.0 0.00 0.00 0.00 49 1019.8
20260901051538 77 294 4.0 13.0 0.00 0.00 0.00 50 1019.9
20260901051039 77 344 6.0 16.0 0.00 0.00 0.00 50 1020.0
20260901050538 77 271 7.0 16.0 0.00 0.00 0.00 51 1020.1
20260901050038 77 342 5.0 14.0 0.00 0.00 0.00 51 1020.1
20260901045538 77 312 6.0 14.0 0.00 0.00 0.00 51 1020.1
20260901045037 77 311 6.0 14.0 0.00 0.00 0.00 51 1020.2
20260901044540 77 344 5.0 16.0 0.00 0.00 0.00 52 1020.2
20260901044036 76 323 7.0 18.0 0.00 0.00 0.00 52 1020.1
20260901043535 76 290 6.0 18.0 0.00 0.00 0.00 53 1020.1
20260901043034 77 239 9.0 16.0 0.00 0.00 0.00 52 1020.0
20260901042539 77 232 7.0 16.0 0.00 0.00 0.00 51 1020.0
20260901042033 77 242 5.0 19.0 0.00 0.00 0.00 50 1019.8
20260901041536 78 227 8.0 19.0 0.00 0.00 0.00 50 1019.8
20260901041032 78 286 6.0 14.0 0.00 0.00 0.00 49 1019.7
20260901040532 78 286 7.0 14.0 0.00 0.00 0.00 49 1019.6
20260901040033 78 305 6.0 16.0 0.00 0.00 0.00 48 1019.6
20260901035531 78 232 8.0 16.0 0.00 0.00 0.00 48 1019.6
20260901035033 79 218 6.0 14.0 0.00 0.00 0.00 47 1019.5
20260901034537 79 253 5.0 14.0 0.00 0.00 0.00 47 1019.5
20260901034029 79 227 6.0 14.0 0.00 0.00 0.00 47 1019.3
20260901033527 79 267 5.0 12.0 0.00 0.00 0.00 46 1019.2
20260901033029 80 226 4.0 15.0 0.00 0.00 0.00 46 1019.1
20260901032525 80 251 10.0 15.0 0.00 0.00 0.00 45 1018.7
20260901032024 80 232 8.0 20.0 0.00 0.00 0.00 45 1018.6
20260901031529 81 213 9.0 20.0 0.00 0.00 0.00 44 1018.4
20260901031021 81 217 9.0 19.0 0.00 0.00 0.00 42 1018.3
20260901030521 82 227 9.0 18.0 0.00 0.00 0.00 41 1018.1
20260901030020 82 159 7.0 14.0 0.00 0.00 0.00 40 1018.0
20260901025521 82 195 7.0 12.0 0.00 0.00 0.00 37 1017.9
20260901025021 82 211 5.0 14.0 0.00 0.00 0.00 38 1017.6
20260901024522 82 138 6.0 14.0 0.00 0.00 0.00 38 1017.6
20260901024023 82 184 5.0 15.0 0.00 0.00 0.00 37 1017.4
20260901023524 84 169 8.0 15.0 0.00 0.00 0.00 35 1017.1
20260901023021 84 148 3.0 7.0 0.00 0.00 0.00 34 1016.9
20260901022521 84 157 1.0 10.0 0.00 0.00 0.00 34 1016.6
20260901022119 84 178 5.0 10.0 0.00 0.00 0.00 34 1016.5
20260901021522 84 196 2.0 8.0 0.00 0.00 0.00 35 1016.1
20260901021019 84 204 0.0 10.0 0.00 0.00 0.00 35 1015.9
20260901020519 84 144 6.0 11.0 0.00 0.00 0.00 34 1016.0
20260901020022 84 216 6.0 11.0 0.00 0.00 0.00 35 1015.7
20260901015523 84 334 3.0 14.0 0.00 0.00 0.00 35 1015.2
20260901015018 84 323 5.0 14.0 0.00 0.00 0.00 35 1015.2
20260901014518 85 292 7.0 20.0 0.00 0.00 0.00 34 1015.1
20260901014019 86 269 9.0 18.0 0.00 0.00 0.00 33 1015.1
20260901013519 87 304 4.0 18.0 0.00 0.00 0.00 29 1015.0
20260901013017 88 256 9.0 18.0 0.00 0.00 0.00 27 1014.9
20260901012517 89 258 5.0 9.0 0.00 0.00 0.00 25 1014.6
20260901012016 88 286 0.0 4.0 0.00 0.00 0.00 27 1014.5
20260901011517 89 233 0.0 1.0 0.00 0.00 0.00 28 1014.3
20260901011017 89 233 0.0 2.0 0.00 0.00 0.00 27 1014.2
20260901010519 89 233 0.0 2.0 0.00 0.00 0.00 26 1014.1
20260901010016 89 233 0.0 7.0 0.00 0.00 0.00 26 1014.1
20260901005518 90 224 1.0 7.0 0.00 0.00 0.00 25 1014.0
20260901005015 90 242 1.0 8.0 0.00 0.00 0.00 26 1014.1
20260901004516 90 232 3.0 10.0 0.00 0.00 0.00 25 1014.2
20260901004015 91 242 2.0 8.0 0.00 0.00 0.00 25 1014.2
20260901003515 91 247 3.0 11.0 0.00 0.00 0.00 25 1014.3
20260901003025 92 290 6.0 11.0 0.00 0.00 0.00 24 1014.4
20260901002515 93 232 5.0 10.0 0.00 0.00 0.00 22 1014.4
20260901002015 93 171 5.0 9.0 0.00 0.00 0.00 21 1014.4
20260901001519 93 196 4.0 8.0 0.00 0.00 0.00 20 1014.3
20260901001014 94 215 5.0 8.0 0.00 0.00 0.00 21 1014.3
20260901000514 94 188 4.0 8.0 0.00 0.00 0.00 21 1014.3
20260901000014 94 201 4.0 10.0 0.00 0.00 0.00 21 1014.3
20260831235515 94 200 5.0 11.0 0.00 0.00 0.00 21 1014.3
20260831235017 95 176 6.0 11.0 0.00 0.00 0.00 21 1014.3
20260831234514 95 170 4.0 12.0 0.00 0.00 0.00 20 1014.2
20260831234013 96 188 7.0 12.0 0.00 0.00 0.00 20 1014.2
20260831233514 97 248 3.0 11.0 0.00 0.00 0.00 20 1014.1
20260831233013 96 200 6.0 11.0 0.00 0.00 0.00 20 1014.1
20260831232513 96 192 5.0 11.0 0.00 0.00 0.00 20 1014.1
20260831232013 96 186 6.0 11.0 0.00 0.00 0.00 20 1014.1
20260831231513 97 194 7.0 11.0 0.00 0.00 0.00 19 1014.1
20260831231013 97 170 6.0 9.0 0.00 0.00 0.00 19 1014.0
20260831230513 98 171 4.0 9.0 0.00 0.00 0.00 19 1014.0
20260831230014 98 263 4.0 9.0 0.00 0.00 0.00 19 1014.1
20260831225511 98 207 4.0 10.0 0.00 0.00 0.00 19 1014.2
20260831225011 98 212 6.0 10.0 0.00 0.00 0.00 19 1014.2
20260831224510 98 181 6.0 10.0 0.00 0.00 0.00 19 1014.2
20260831224010 98 211 6.0 10.0 0.00 0.00 0.00 20 1014.3
20260831223509 97 215 6.0 10.0 0.00 0.00 0.00 18 1014.4
20260831223009 98 200 6.0 13.0 0.00 0.00 0.00 15 1014.5
20260831222509 98 170 5.0 13.0 0.00 0.00 0.00 16 1014.6
20260831222008 99 232 7.0 11.0 0.00 0.00 0.00 17 1014.6
20260831221520 99 142 2.0 11.0 0.00 0.00 0.00 17 1014.6
20260831221010 99 173 7.0 14.0 0.00 0.00 0.00 15 1014.6
20260831220509 99 218 7.0 14.0 0.00 0.00 0.00 15 1014.6
20260831220008 99 211 6.0 13.0 0.00 0.00 0.00 15 1014.7
20260831215506 99 161 6.0 13.0 0.00 0.00 0.00 16 1014.8
20260831215006 99 123 5.0 11.0 0.00 0.00 0.00 16 1014.9
20260831214504 99 172 6.0 11.0 0.00 0.00 0.00 19 1015.0
20260831214004 99 165 7.0 15.0 0.00 0.00 0.00 18 1015.0